TimeEDT,TemperatureF,Dew PointF,Humidity,Sea Level PressureIn,VisibilityMPH,Wind Direction,Wind SpeedMPH,Gust SpeedMPH,PrecipitationIn,Events,Conditions,WindDirDegrees,DateUTC
12:15 AM,32.0,32.0,100,29.73,2.5,Calm,Calm,-,N/A,,Overcast,0,2013-03-26 04:15:00
12:35 AM,32.0,32.0,100,29.73,3.0,Calm,Calm,-,N/A,,Overcast,0,2013-03-26 04:35:00
12:55 AM,32.0,32.0,100,29.74,3.0,Calm,Calm,-,N/A,,Overcast,0,2013-03-26 04:55:00
1:15 AM,32.0,32.0,100,29.74,4.0,WSW,4.6,-,N/A,,Overcast,240,2013-03-26 05:15:00
1:35 AM,32.0,32.0,100,29.75,5.0,SW,4.6,-,N/A,,Overcast,220,2013-03-26 05:35:00
1:55 AM,32.0,32.0,100,29.75,5.0,WSW,3.5,-,N/A,,Overcast,250,2013-03-26 05:55:00
2:15 AM,32.0,32.0,100,29.76,10.0,West,4.6,-,N/A,,Overcast,270,2013-03-26 06:15:00
2:35 AM,32.0,32.0,100,29.76,10.0,West,4.6,-,N/A,,Overcast,260,2013-03-26 06:35:00
2:55 AM,32.0,32.0,100,29.76,7.0,West,3.5,-,N/A,,Overcast,260,2013-03-26 06:55:00
3:15 AM,32.0,32.0,100,29.77,10.0,Calm,Calm,-,N/A,,Overcast,0,2013-03-26 07:15:00
3:35 AM,32.0,32.0,100,29.77,10.0,Calm,Calm,-,N/A,,Overcast,0,2013-03-26 07:35:00
3:55 AM,32.0,32.0,100,29.77,4.0,Calm,Calm,-,N/A,,Overcast,0,2013-03-26 07:55:00
4:15 AM,30.2,30.2,100,29.77,3.0,Calm,Calm,-,N/A,,Overcast,0,2013-03-26 08:15:00
4:35 AM,32.0,32.0,100,29.78,4.0,Calm,Calm,-,N/A,,Mostly Cloudy,0,2013-03-26 08:35:00
4:55 AM,30.2,30.2,100,29.78,1.2,Calm,Calm,-,N/A,,Scattered Clouds,0,2013-03-26 08:55:00
5:15 AM,28.4,28.4,100,29.79,0.5,Calm,Calm,-,N/A,Fog,Light Freezing Fog,0,2013-03-26 09:15:00
5:35 AM,30.2,30.2,100,29.79,1.5,Calm,Calm,-,N/A,,Mostly Cloudy,0,2013-03-26 09:35:00
5:55 AM,30.2,30.2,100,29.80,2.5,South,3.5,-,N/A,,Mostly Cloudy,190,2013-03-26 09:55:00
6:15 AM,30.2,30.2,100,29.80,4.0,Calm,Calm,-,N/A,,Overcast,0,2013-03-26 10:15:00
6:35 AM,30.2,30.2,100,29.81,4.0,Calm,Calm,-,N/A,,Overcast,0,2013-03-26 10:35:00
6:45 AM,32.0,32.0,100,29.82,10.0,Calm,Calm,-,N/A,,Overcast,0,2013-03-26 10:45:00
6:48 AM,32.0,32.0,100,29.82,10.0,Calm,Calm,-,N/A,,Overcast,0,2013-03-26 10:48:00
7:52 AM,32.0,32.0,100,29.84,10.0,Calm,Calm,-,N/A,,Scattered Clouds,0,2013-03-26 11:52:00
8:50 AM,37.4,35.6,93,29.86,10.0,Calm,Calm,-,N/A,,Scattered Clouds,0,2013-03-26 12:50:00
9:45 AM,41.0,33.8,76,29.87,10.0,NNW,9.2,-,N/A,,Scattered Clouds,330,2013-03-26 13:45:00
10:52 AM,42.8,32.0,66,29.89,10.0,North,6.9,16.1,N/A,,Clear,350,2013-03-26 14:52:00
11:50 AM,42.8,32.0,66,29.90,10.0,NW,12.7,17.3,N/A,,Mostly Cloudy,320,2013-03-26 15:50:00
12:45 PM,44.6,30.2,57,29.90,10.0,NNW,9.2,19.6,N/A,,Mostly Cloudy,340,2013-03-26 16:45:00
1:46 PM,48.2,30.2,50,29.89,10.0,NNW,6.9,-,N/A,,Mostly Cloudy,330,2013-03-26 17:46:00
2:47 PM,48.2,28.4,46,29.88,10.0,NNW,11.5,19.6,N/A,,Mostly Cloudy,330,2013-03-26 18:47:00
3:50 PM,51.8,28.4,41,29.87,10.0,NW,10.4,18.4,N/A,,Mostly Cloudy,320,2013-03-26 19:50:00
4:51 PM,48.2,30.2,50,29.88,10.0,NW,18.4,25.3,N/A,,Mostly Cloudy,320,2013-03-26 20:51:00
5:59 PM,48.2,30.2,50,29.91,10.0,NNW,18.4,23.0,N/A,,Mostly Cloudy,330,2013-03-26 21:59:00
6:45 PM,46.4,30.2,53,29.92,10.0,NNW,15.0,23.0,N/A,,Mostly Cloudy,340,2013-03-26 22:45:00
7:52 PM,44.6,28.4,53,29.95,10.0,WNW,5.8,-,N/A,,Mostly Cloudy,290,2013-03-26 23:52:00
9:00 PM,42.8,30.2,61,29.98,10.0,WNW,6.9,-,N/A,,Overcast,300,2013-03-27 01:00:00
9:20 PM,42.8,28.4,57,29.99,10.0,Calm,Calm,-,N/A,,Overcast,0,2013-03-27 01:20:00
9:40 PM,42.8,30.2,61,29.99,10.0,SE,3.5,-,N/A,,Overcast,130,2013-03-27 01:40:00
10:00 PM,42.8,30.2,61,30.00,10.0,NE,4.6,-,N/A,,Overcast,50,2013-03-27 02:00:00
10:20 PM,42.8,30.2,61,30.01,10.0,North,13.8,20.7,N/A,,Overcast,350,2013-03-27 02:20:00
10:40 PM,42.8,30.2,61,30.00,10.0,WNW,13.8,25.3,N/A,,Overcast,290,2013-03-27 02:40:00
11:00 PM,42.8,30.2,61,30.00,10.0,WNW,16.1,28.8,N/A,,Overcast,300,2013-03-27 03:00:00
11:20 PM,41.0,30.2,65,30.00,10.0,WNW,15.0,26.5,N/A,,Overcast,300,2013-03-27 03:20:00
11:40 PM,41.0,30.2,65,30.01,10.0,WNW,9.2,26.5,N/A,,Overcast,300,2013-03-27 03:40:00